• In Uzbekistan
  • List of Countries
  • For 7 days
  • Water Temperature
  • Satellite Maps
  • Weather Map
  • Weather Widgets
  • user-avatar
    Login

    Hourly Weather Shkoder

    Today, 26 May, Friday

    Time Temperature Precipitation Wind Pressure Humidity
    00:00 +12°C° 0.4 mm 3 mps 737 mmHg 89%
    01:00 +12°C° 0.4 mm 3 mps 737 mmHg 89%
    02:00 +12°C° 0.3 mm 3 mps 737 mmHg 89%
    03:00 +11°C° 0.3 mm 3 mps 737 mmHg 89%
    04:00 +11°C° 0.3 mm 3 mps 737 mmHg 89%
    05:00 +12°C° 0.3 mm 3 mps 737 mmHg 88%
    06:00 +13°C° 0.3 mm 3 mps 737 mmHg 86%
    07:00 +14°C° 0.3 mm 2 mps 737 mmHg 85%
    08:00 +16°C° 0.2 mm 3 mps 737 mmHg 79%
    09:00 +17°C° 0.2 mm 3 mps 737 mmHg 72%
    10:00 +18°C° 0.2 mm 3 mps 738 mmHg 66%
    11:00 +19°C° 0.1 mm 3 mps 738 mmHg 64%
    12:00 +20°C° 0.1 mm 3 mps 738 mmHg 61%
    13:00 +20°C° 0.1 mm 3 mps 738 mmHg 59%
    14:00 +20°C° 0.1 mm 3 mps 737 mmHg 60%
    15:00 +20°C° 0.1 mm 3 mps 737 mmHg 61%
    16:00 +20°C° 0.1 mm 3 mps 737 mmHg 62%
    17:00 +19°C° 0.1 mm 3 mps 737 mmHg 68%
    18:00 +18°C° 0.1 mm 3 mps 737 mmHg 74%
    19:00 +16°C° 0.1 mm 3 mps 737 mmHg 81%
    20:00 +16°C° 0.1 mm 3 mps 738 mmHg 82%
    21:00 +16°C° 0.1 mm 3 mps 738 mmHg 82%
    22:00 +14°C° 0.1 mm 3 mps 738 mmHg 83%
    23:00 +14°C° 0.1 mm 3 mps 738 mmHg 84%

    Tomorrow, 27 May, Saturday

    Time Temperature Precipitation Wind Pressure Humidity
    00:00 +14°C° 0.1 mm 3 mps 738 mmHg 85%
    01:00 +13°C° 0.1 mm 3 mps 738 mmHg 87%
    02:00 +13°C° 0 mm 3 mps 738 mmHg 86%
    03:00 +13°C° 0 mm 3 mps 739 mmHg 86%
    04:00 +13°C° 0 mm 3 mps 739 mmHg 86%
    05:00 +14°C° 0 mm 3 mps 739 mmHg 80%
    06:00 +17°C° 0 mm 3 mps 739 mmHg 74%
    07:00 +18°C° 0 mm 3 mps 739 mmHg 68%
    08:00 +20°C° 0 mm 3 mps 739 mmHg 62%
    09:00 +21°C° 0 mm 3 mps 739 mmHg 55%
    10:00 +22°C° 0 mm 3 mps 740 mmHg 49%
    11:00 +24°C° 0 mm 3 mps 739 mmHg 47%
    12:00 +25°C° 0 mm 3 mps 739 mmHg 45%
    13:00 +25°C° 0 mm 3 mps 739 mmHg 43%
    14:00 +25°C° 0.1 mm 3 mps 739 mmHg 45%
    15:00 +25°C° 0.1 mm 4 mps 739 mmHg 47%
    16:00 +23°C° 0.1 mm 4 mps 739 mmHg 49%
    17:00 +21°C° 0.1 mm 3 mps 739 mmHg 57%
    18:00 +20°C° 0.1 mm 3 mps 740 mmHg 65%
    19:00 +18°C° 0.1 mm 3 mps 740 mmHg 73%
    20:00 +17°C° 0 mm 3 mps 740 mmHg 76%
    21:00 +16°C° 0 mm 3 mps 741 mmHg 78%
    22:00 +14°C° 0 mm 3 mps 741 mmHg 81%
    23:00 +14°C° 0 mm 3 mps 741 mmHg 82%

    Day after tomorrow, 28 May, Sunday

    Time Temperature Precipitation Wind Pressure Humidity
    00:00 +14°C° 0 mm 3 mps 741 mmHg 83%
    01:00 +14°C° 0 mm 3 mps 741 mmHg 83%
    02:00 +14°C° 0 mm 3 mps 741 mmHg 84%
    03:00 +13°C° 0 mm 3 mps 741 mmHg 84%
    04:00 +13°C° 0 mm 3 mps 742 mmHg 84%
    05:00 +16°C° 0 mm 3 mps 742 mmHg 79%
    06:00 +18°C° 0 mm 3 mps 742 mmHg 73%
    07:00 +19°C° 0 mm 3 mps 742 mmHg 68%
    08:00 +21°C° 0 mm 3 mps 742 mmHg 61%
    09:00 +22°C° 0 mm 3 mps 743 mmHg 55%
    10:00 +25°C° 0 mm 3 mps 743 mmHg 48%
    11:00 +26°C° 0.1 mm 3 mps 743 mmHg 47%
    12:00 +27°C° 0.1 mm 3 mps 743 mmHg 45%
    13:00 +27°C° 0.1 mm 3 mps 742 mmHg 44%
    14:00 +27°C° 0.2 mm 3 mps 742 mmHg 46%
    15:00 +27°C° 0.2 mm 3 mps 742 mmHg 48%
    16:00 +26°C° 0.2 mm 3 mps 742 mmHg 50%
    17:00 +24°C° 0.1 mm 3 mps 742 mmHg 60%
    18:00 +21°C° 0.1 mm 3 mps 743 mmHg 69%
    19:00 +18°C° 0.1 mm 2 mps 743 mmHg 78%
    20:00 +18°C° 0 mm 2 mps 743 mmHg 78%
    21:00 +17°C° 0 mm 2 mps 744 mmHg 79%
    22:00 +17°C° 0 mm 2 mps 744 mmHg 80%
    23:00 +16°C° 0 mm 3 mps 744 mmHg 81%

    29 May, Monday

    Time Temperature Precipitation Wind Pressure Humidity
    00:00 +16°C° 0 mm 3 mps 744 mmHg 83%
    01:00 +14°C° 0 mm 3 mps 743 mmHg 84%
    02:00 +14°C° 0 mm 3 mps 743 mmHg 84%
    03:00 +14°C° 0 mm 3 mps 743 mmHg 85%
    04:00 +14°C° 0 mm 3 mps 743 mmHg 85%
    05:00 +16°C° 0 mm 2 mps 743 mmHg 78%
    06:00 +18°C° 0 mm 2 mps 743 mmHg 72%
    07:00 +20°C° 0 mm 2 mps 743 mmHg 65%
    08:00 +23°C° 0 mm 2 mps 743 mmHg 57%
    09:00 +25°C° 0 mm 2 mps 743 mmHg 48%
    10:00 +27°C° 0 mm 1 mps 743 mmHg 39%
    11:00 +28°C° 0 mm 2 mps 742 mmHg 38%
    12:00 +28°C° 0 mm 2 mps 742 mmHg 36%
    13:00 +29°C° 0 mm 2 mps 742 mmHg 35%
    14:00 +28°C° 0 mm 3 mps 741 mmHg 37%
    15:00 +28°C° 0 mm 3 mps 741 mmHg 39%
    16:00 +27°C° 0 mm 3 mps 741 mmHg 42%
    17:00 +24°C° 0 mm 2 mps 741 mmHg 55%
    18:00 +20°C° 0 mm 2 mps 741 mmHg 69%
    19:00 +18°C° 0 mm 1 mps 741 mmHg 82%
    20:00 +16°C° 0 mm 1 mps 741 mmHg 82%
    21:00 +16°C° 0 mm 1 mps 741 mmHg 81%
    22:00 +15°C° 0 mm 1 mps 741 mmHg 80%
    23:00 +14°C° 0 mm 1 mps 741 mmHg 80%

    30 May, Tuesday

    Time Temperature Precipitation Wind Pressure Humidity
    00:00 +14°C° 0 mm 1 mps 741 mmHg 79%
    01:00 +14°C° 0 mm 1 mps 740 mmHg 78%
    02:00 +14°C° 0 mm 1 mps 740 mmHg 79%
    03:00 +14°C° 0 mm 1 mps 740 mmHg 79%
    04:00 +14°C° 0 mm 1 mps 740 mmHg 79%
    05:00 +18°C° 0 mm 1 mps 740 mmHg 71%
    06:00 +19°C° 0 mm 0 mps 740 mmHg 62%
    07:00 +22°C° 0 mm 0 mps 741 mmHg 54%
    08:00 +23°C° 0 mm 0 mps 741 mmHg 49%
    09:00 +27°C° 0 mm 1 mps 741 mmHg 44%
    10:00 +28°C° 0 mm 1 mps 741 mmHg 39%
    11:00 +29°C° 0 mm 2 mps 741 mmHg 39%
    12:00 +29°C° 0 mm 2 mps 740 mmHg 38%
    13:00 +30°C° 0 mm 3 mps 740 mmHg 37%
    14:00 +29°C° 0 mm 2 mps 740 mmHg 41%
    15:00 +28°C° 0 mm 2 mps 740 mmHg 45%
    16:00 +27°C° 0 mm 2 mps 740 mmHg 49%
    17:00 +25°C° 0.1 mm 2 mps 740 mmHg 61%
    18:00 +22°C° 0.1 mm 1 mps 740 mmHg 74%
    19:00 +19°C° 0.1 mm 1 mps 740 mmHg 86%
    20:00 +18°C° 0 mm 1 mps 740 mmHg 87%
    21:00 +18°C° 0 mm 1 mps 740 mmHg 89%
    22:00 +16°C° 0 mm 1 mps 741 mmHg 90%
    23:00 +14°C° 0 mm 0 mps 741 mmHg 90%

    31 May, Wednesday

    Time Temperature Precipitation Wind Pressure Humidity
    00:00 +14°C° 0 mm 0 mps 740 mmHg 90%
    01:00 +14°C° 0 mm 0 mps 740 mmHg 90%
    02:00 +13°C° 0 mm 0 mps 740 mmHg 91%
    03:00 +13°C° 0 mm 0 mps 740 mmHg 91%
    04:00 +13°C° 0 mm 0 mps 740 mmHg 91%
    05:00 +16°C° 0 mm 0 mps 740 mmHg 81%
    06:00 +19°C° 0 mm 0 mps 741 mmHg 72%
    07:00 +22°C° 0 mm 0 mps 741 mmHg 62%
    08:00 +24°C° 0 mm 0 mps 741 mmHg 56%
    09:00 +27°C° 0 mm 1 mps 741 mmHg 51%
    10:00 +29°C° 0 mm 1 mps 741 mmHg 45%
    11:00 +29°C° 0 mm 2 mps 741 mmHg 44%
    12:00 +30°C° 0 mm 2 mps 741 mmHg 43%
    13:00 +30°C° 0 mm 2 mps 741 mmHg 42%
    14:00 +30°C° 0.1 mm 2 mps 741 mmHg 46%
    15:00 +29°C° 0.1 mm 2 mps 740 mmHg 50%
    16:00 +28°C° 0.1 mm 2 mps 740 mmHg 54%
    17:00 +26°C° 0.1 mm 2 mps 740 mmHg 65%
    18:00 +23°C° 0.1 mm 1 mps 740 mmHg 76%
    19:00 +21°C° 0.1 mm 1 mps 740 mmHg 87%
    20:00 +20°C° 0 mm 1 mps 741 mmHg 88%
    21:00 +19°C° 0 mm 1 mps 741 mmHg 89%
    22:00 +18°C° 0 mm 1 mps 741 mmHg 90%
    23:00 +18°C° 0 mm 1 mps 741 mmHg 90%
    Show more